Retour au catalogue

ATLAS 5 CENTAUR DEB

ActifHEO
NORAD 44015·DEBRIS·🇺🇸 United States

Lancé Sep 17, 2014 depuis Cape Canaveral Space Force Station

Loading…

Prochains Passages (prochaines 24 heures)

TLE

FraisSource: Space-Track

Époque: Sep 13, 2026, 09:07 UTC

1 44015U 14055BW  26256.38028174 -.00000392  00000-0  00000+0 0  9997
2 44015  21.3008  76.2998 5089714 286.7357  24.9570  1.95143567 56282

Suivez ATLAS 5 CENTAUR DEB en temps réel avec AllMySat

Download on the App Store